Regional Weather Roundup
Issued by NWS

Home | Current Version | Previous Version | Text Only | Print | Product List | Glossary Off
Versions: 1 2 3 4 5 6 7 8 9 10 11 12 13 14 15 16 17 18 19 20 21 22 23 24 25 26 27 28 29 30 31 32 33 34 35 36 37 38 39 40 41 42 43 44 45 46 47 48 49 50

000
ASUS43 KLMK 182302
RWRKY
KENTUCKY REGIONAL WEATHER ROUNDUP
NATIONAL WEATHER SERVICE LOUISVILLE KY
700 PM EDT FRI APR 18 2014

NOTE "FAIR" INDICATES FEW OR NO CLOUDS BELOW 12,000 FEET
WITH NO SIGNIFICANT WEATHER AND/OR OBSTRUCTIONS TO VISIBILITY.

KYZ001>023-026-027-061>063-070>075-190000-
WESTERN AND SOUTH CENTRAL KENTUCKY

CITY           SKY/WX    TMP DP  RH WIND       PRES   REMARKS
PADUCAH        PTSUNNY   73  42  32 NE8       30.17S
HENDERSON      SUNNY     70  41  35 N7        30.18F
OWENSBORO      MOSUNNY   70  40  33 NE5       30.19F
HOPKINSVILLE   MOSUNNY   68  50  52 NE5       30.17F
BOWLING GREEN  MOSUNNY   69  42  37 CALM      30.19R
GLASGOW        NOT AVBL
$$

KYZ024-025-028>034-038-045-046-053-190000-
NORTH CENTRAL KENTUCKY

CITY           SKY/WX    TMP DP  RH WIND       PRES   REMARKS
LOUISVILLE/SDF PTSUNNY   71  37  28 E6        30.18F
LOUISVILLE/LOU PTSUNNY   73  36  25 NE8       30.19F
FORT KNOX      PTSUNNY   69  37  31 N3        30.17F
$$

KYZ035>037-039>044-047>052-055>060-089>105-190000-
NORTHEAST KENTUCKY

CITY           SKY/WX    TMP DP  RH WIND       PRES   REMARKS
LEXINGTON      CLOUDY    67  39  35 N3        30.21F
COVINGTON      PTSUNNY   70  35  27 N8        30.20F
FRANKFORT      CLOUDY    68  35  29 N3        30.19F
$$

KYZ054-064>069-076>088-106>120-190000-
SOUTHEAST KENTUCKY

CITY           SKY/WX    TMP DP  RH WIND       PRES   REMARKS
JACKSON        CLOUDY    67  38  34 CALM      30.20F
LONDON         CLOUDY    68  40  35 N3        30.19F
SOMERSET       NOT AVBL
MIDDLESBORO    NOT AVBL
MONTICELLO     CLOUDY    65  46  50 NE3       30.21F
$$




USA.gov is the U.S. government's official web portal to all federal, state and local government web resources and services.